Weather in Petrovka

Russia / Republic of Crimea     45°29′47″N   34°17′00″E
temp.,
°C
wind,
m/s
gust,
m/s
humid.,
%
clouds,
%
prec.,
mm/h
press.,
hPa
HPBL,
m
25 february, thu
thu2500:00−3e257035 0.0 1037166
03:00−2ene227018 0.0 103649
06:00−2e116961 0.0 103622
09:00−1se346162 0.0 1035185
12:00+4wsw114561 0.0 1035380
15:00+5wnw345674 0.0 1034439
18:00+3wsw2372100 0.0 103256
21:00+2wsw3786100 0.0 1032192
26 february, fri
fri2600:00+3sw4992100 0.0 1032234
03:00+4wsw4995100 0.0 1031244
06:00+4sw4796100 0.0 1029213
09:00+6wsw479498 0.0 1030272
12:00+10wsw577472 0.0 1029651
15:00+12wsw676873 0.0 1027865
18:00+9sw588075 0.0 1026375
21:00+6sw6119338 0.0 1025312
27 february, sat
sat2700:00+6sw713934 0.0 1023368
03:00+6sw7149312 0.0 1022413
06:00+6sw7139349 0.0 1020451
09:00+7sw7128767 0.0 1020515
12:00+10wsw797683 0.0 1019781
15:00+10wsw697792 0.0 1018775
18:00+8wnw3686100 0.0 1016421
21:00+7nnw5791100 2.6 1017509
28 february, sun
sun2800:00+5nw5885100 1.6 1017694
03:00+5nw4872100 2.1 1017671
06:00+4nw6983100 0.1 1017598
09:00+4nw577499 0.1 1018949
12:00+4nw5772100 0.3 1019889
15:00+5nw566799 0.4 1020909
18:00+4nw5677100 0.4 1021705
21:00+3nw488696 0.4 1023536
1 march, mon
mon100:00+1nnw488684 0.0 1025291
03:000nnw379776 0.0 1026324
06:000nnw469379 0.0 1027328
09:000nnw349290 0.1 1029332
12:00+2nnw4475100 0.1 1030642
15:00+3nnw3366100 0.2 1031803
18:00+2n3466100 0.0 1031921
21:00+1n257999 0.1 1033367